• In Uzbekistan
  • List of Countries
  • For 7 days
  • Water Temperature
  • Satellite Maps
  • Weather Map
  • Weather Widgets
  • user-avatar
    Login

    Hourly Weather Shusha

    Today, 27 April, Thursday

    Time Temperature Precipitation Wind Pressure Humidity
    00:00 +1°C° 0 mm 1 mps 666 mmHg 86%
    01:00 0°C° 0 mm 1 mps 666 mmHg 86%
    02:00 0°C° 0 mm 1 mps 666 mmHg 85%
    03:00 0°C° 0 mm 1 mps 665 mmHg 87%
    04:00 +1°C° 0 mm 1 mps 666 mmHg 82%
    05:00 +2°C° 0 mm 1 mps 666 mmHg 77%
    06:00 +3°C° 0 mm 1 mps 667 mmHg 72%
    07:00 +5°C° 0 mm 1 mps 667 mmHg 65%
    08:00 +6°C° 0 mm 2 mps 667 mmHg 58%
    09:00 +7°C° 0 mm 2 mps 668 mmHg 49%
    10:00 +8°C° 0 mm 2 mps 668 mmHg 48%
    11:00 +9°C° 0 mm 3 mps 668 mmHg 47%
    12:00 +11°C° 0 mm 3 mps 668 mmHg 46%
    13:00 +10°C° 0 mm 3 mps 667 mmHg 49%
    14:00 +10°C° 0 mm 3 mps 667 mmHg 52%
    15:00 +9°C° 0 mm 2 mps 667 mmHg 55%
    16:00 +9°C° 0 mm 2 mps 666 mmHg 60%
    17:00 +8°C° 0 mm 2 mps 666 mmHg 64%
    18:00 +7°C° 0 mm 2 mps 666 mmHg 69%
    19:00 +6°C° 0 mm 1 mps 666 mmHg 76%
    20:00 +5°C° 0 mm 1 mps 666 mmHg 82%
    21:00 +3°C° 0 mm 1 mps 665 mmHg 89%
    22:00 +3°C° 0 mm 1 mps 665 mmHg 89%
    23:00 +3°C° 0 mm 1 mps 665 mmHg 88%

    Tomorrow, 28 April, Friday

    Time Temperature Precipitation Wind Pressure Humidity
    00:00 +3°C° 0 mm 1 mps 665 mmHg 88%
    01:00 +3°C° 0 mm 1 mps 665 mmHg 87%
    02:00 +3°C° 0 mm 1 mps 665 mmHg 86%
    03:00 +3°C° 0 mm 1 mps 665 mmHg 84%
    04:00 +4°C° 0 mm 1 mps 665 mmHg 82%
    05:00 +4°C° 0 mm 1 mps 665 mmHg 80%
    06:00 +5°C° 0 mm 1 mps 665 mmHg 78%
    07:00 +7°C° 0 mm 1 mps 665 mmHg 71%
    08:00 +9°C° 0 mm 1 mps 666 mmHg 64%
    09:00 +9°C° 0 mm 2 mps 666 mmHg 57%
    10:00 +12°C° 0 mm 2 mps 666 mmHg 55%
    11:00 +13°C° 0 mm 2 mps 665 mmHg 53%
    12:00 +14°C° 0 mm 2 mps 665 mmHg 50%
    13:00 +14°C° 0 mm 2 mps 665 mmHg 51%
    14:00 +14°C° 0 mm 2 mps 664 mmHg 52%
    15:00 +14°C° 0 mm 2 mps 664 mmHg 54%
    16:00 +13°C° 0 mm 2 mps 664 mmHg 59%
    17:00 +13°C° 0 mm 1 mps 663 mmHg 65%
    18:00 +12°C° 0 mm 1 mps 663 mmHg 70%
    19:00 +10°C° 0 mm 1 mps 663 mmHg 76%
    20:00 +8°C° 0 mm 1 mps 662 mmHg 81%
    21:00 +6°C° 0 mm 1 mps 662 mmHg 87%
    22:00 +6°C° 0 mm 1 mps 662 mmHg 87%
    23:00 +6°C° 0 mm 1 mps 661 mmHg 88%

    Day after tomorrow, 29 April, Saturday

    Time Temperature Precipitation Wind Pressure Humidity
    00:00 +6°C° 0 mm 1 mps 661 mmHg 88%
    01:00 +5°C° 0 mm 1 mps 661 mmHg 88%
    02:00 +5°C° 0 mm 1 mps 661 mmHg 89%
    03:00 +5°C° 0 mm 1 mps 660 mmHg 89%
    04:00 +6°C° 0 mm 1 mps 660 mmHg 87%
    05:00 +7°C° 0 mm 1 mps 661 mmHg 84%
    06:00 +7°C° 0 mm 1 mps 661 mmHg 82%
    07:00 +10°C° 0 mm 1 mps 661 mmHg 72%
    08:00 +12°C° 0 mm 1 mps 662 mmHg 62%
    09:00 +15°C° 0 mm 2 mps 662 mmHg 52%
    10:00 +16°C° 0 mm 2 mps 662 mmHg 50%
    11:00 +17°C° 0 mm 2 mps 662 mmHg 47%
    12:00 +18°C° 0 mm 2 mps 662 mmHg 44%
    13:00 +19°C° 0.1 mm 2 mps 662 mmHg 45%
    14:00 +19°C° 0.1 mm 3 mps 661 mmHg 45%
    15:00 +19°C° 0.1 mm 3 mps 661 mmHg 45%
    16:00 +18°C° 0.2 mm 2 mps 661 mmHg 52%
    17:00 +16°C° 0.2 mm 2 mps 660 mmHg 58%
    18:00 +15°C° 0.2 mm 1 mps 660 mmHg 64%
    19:00 +13°C° 0.3 mm 1 mps 660 mmHg 70%
    20:00 +11°C° 0.3 mm 1 mps 660 mmHg 77%
    21:00 +9°C° 0.3 mm 1 mps 659 mmHg 83%
    22:00 +9°C° 0.1 mm 1 mps 659 mmHg 84%
    23:00 +8°C° 0.1 mm 1 mps 659 mmHg 85%

    30 April, Sunday

    Time Temperature Precipitation Wind Pressure Humidity
    00:00 +8°C° 0.1 mm 1 mps 659 mmHg 86%
    01:00 +7°C° 0 mm 1 mps 659 mmHg 86%
    02:00 +7°C° 0 mm 1 mps 658 mmHg 87%
    03:00 +6°C° 0 mm 1 mps 658 mmHg 87%
    04:00 +7°C° 0 mm 1 mps 658 mmHg 84%
    05:00 +8°C° 0 mm 1 mps 659 mmHg 81%
    06:00 +10°C° 0 mm 1 mps 660 mmHg 78%
    07:00 +12°C° 0 mm 1 mps 660 mmHg 68%
    08:00 +15°C° 0 mm 1 mps 661 mmHg 58%
    09:00 +17°C° 0 mm 2 mps 662 mmHg 49%
    10:00 +18°C° 0 mm 2 mps 662 mmHg 45%
    11:00 +19°C° 0 mm 2 mps 662 mmHg 42%
    12:00 +21°C° 0 mm 3 mps 662 mmHg 38%
    13:00 +21°C° 0 mm 3 mps 661 mmHg 38%
    14:00 +21°C° 0 mm 3 mps 661 mmHg 38%
    15:00 +21°C° 0 mm 3 mps 661 mmHg 38%
    16:00 +20°C° 0 mm 2 mps 660 mmHg 45%
    17:00 +20°C° 0 mm 1 mps 660 mmHg 52%
    18:00 +18°C° 0 mm 1 mps 660 mmHg 60%
    19:00 +15°C° 0.2 mm 1 mps 660 mmHg 66%
    20:00 +13°C° 0.2 mm 1 mps 660 mmHg 72%
    21:00 +12°C° 0.2 mm 1 mps 659 mmHg 78%
    22:00 +11°C° 0.1 mm 1 mps 659 mmHg 78%
    23:00 +11°C° 0.1 mm 1 mps 659 mmHg 79%

    1 May, Monday

    Time Temperature Precipitation Wind Pressure Humidity
    00:00 +11°C° 0.1 mm 1 mps 659 mmHg 79%
    01:00 +10°C° 0.1 mm 1 mps 659 mmHg 80%
    02:00 +10°C° 0.1 mm 1 mps 659 mmHg 80%
    03:00 +10°C° 0.1 mm 1 mps 659 mmHg 80%
    04:00 +10°C° 0.1 mm 1 mps 659 mmHg 78%
    05:00 +11°C° 0.1 mm 1 mps 659 mmHg 75%
    06:00 +12°C° 0.1 mm 1 mps 660 mmHg 73%
    07:00 +14°C° 0 mm 1 mps 661 mmHg 64%
    08:00 +18°C° 0 mm 1 mps 661 mmHg 55%
    09:00 +19°C° 0 mm 2 mps 662 mmHg 46%
    10:00 +20°C° 0 mm 2 mps 662 mmHg 43%
    11:00 +21°C° 0 mm 2 mps 662 mmHg 40%
    12:00 +22°C° 0 mm 3 mps 662 mmHg 37%
    13:00 +22°C° 0 mm 3 mps 662 mmHg 37%
    14:00 +22°C° 0 mm 3 mps 662 mmHg 38%
    15:00 +24°C° 0 mm 3 mps 662 mmHg 38%
    16:00 +21°C° 0.1 mm 2 mps 661 mmHg 44%
    17:00 +20°C° 0.1 mm 2 mps 661 mmHg 51%
    18:00 +19°C° 0.1 mm 1 mps 661 mmHg 58%
    19:00 +16°C° 0.2 mm 1 mps 661 mmHg 66%
    20:00 +14°C° 0.2 mm 1 mps 660 mmHg 74%
    21:00 +11°C° 0.2 mm 1 mps 660 mmHg 81%
    22:00 +11°C° 0 mm 1 mps 660 mmHg 81%
    23:00 +11°C° 0 mm 1 mps 660 mmHg 81%

    2 May, Tuesday

    Time Temperature Precipitation Wind Pressure Humidity
    00:00 +11°C° 0 mm 1 mps 660 mmHg 81%
    01:00 +10°C° 0 mm 1 mps 660 mmHg 79%
    02:00 +10°C° 0 mm 1 mps 660 mmHg 78%
    03:00 +9°C° 0 mm 2 mps 660 mmHg 77%
    04:00 +11°C° 0 mm 1 mps 660 mmHg 73%
    05:00 +11°C° 0 mm 1 mps 660 mmHg 70%
    06:00 +12°C° 0 mm 1 mps 661 mmHg 66%
    07:00 +14°C° 0 mm 1 mps 661 mmHg 58%
    08:00 +16°C° 0 mm 1 mps 662 mmHg 51%
    09:00 +19°C° 0 mm 1 mps 662 mmHg 43%
    10:00 +19°C° 0 mm 2 mps 662 mmHg 40%
    11:00 +20°C° 0 mm 2 mps 662 mmHg 37%
    12:00 +22°C° 0 mm 3 mps 662 mmHg 34%
    13:00 +21°C° 0.2 mm 3 mps 662 mmHg 36%
    14:00 +21°C° 0.2 mm 2 mps 661 mmHg 38%
    15:00 +21°C° 0.2 mm 2 mps 661 mmHg 40%
    16:00 +19°C° 0.2 mm 2 mps 661 mmHg 46%
    17:00 +19°C° 0.2 mm 1 mps 660 mmHg 52%
    18:00 +18°C° 0.2 mm 1 mps 660 mmHg 59%
    19:00 +15°C° 0.2 mm 1 mps 660 mmHg 62%
    20:00 +14°C° 0.2 mm 1 mps 660 mmHg 66%
    21:00 +13°C° 0.2 mm 1 mps 660 mmHg 70%
    22:00 +12°C° 0.2 mm 1 mps 659 mmHg 71%
    23:00 +12°C° 0.2 mm 1 mps 659 mmHg 72%
    Show more